Weather History for Park Rapids, MN

Change the Weather History Date:

Saturday, September 1, 2012

  Actual Average Record
Temperature  
Mean Temperature 68 °F -  
Max Temperature 82 °F 74 °F 92 °F (1983)
Min Temperature 55 °F 52 °F 31 °F (1974)
Cooling Degree Days 4    
Growing Degree Days 18 (Base 50)    
Moisture  
Dew Point 51 °F    
Average Humidity 51    
Maximum Humidity 80    
Minimum Humidity 35    
Precipitation  
Precipitation 0.00 in - - ()
Sea Level Pressure  
Sea Level Pressure 30.09 in    
Wind  
Wind Speed 8 mph (ESE)    
Max Wind Speed 18 mph    
Max Gust Speed 26 mph    
Visibility 10 miles    
Events      
Averages and records for this station are not official NWS values.
T = Trace of Precipitation, MM = Missing Value Source: NWS Daily Summary

Daily Weather History Graph

Daily Weather History Graph

Search for Another Location

Airport:

Trip Planner

Search our weather history database for the weather conditions in past years. The results will help you decide how hot, cold, wet, or windy it might be!

Date:

Astronomy

Sep. 01, 2012 Rise Set
Actual Time 6:40 AM CDT 7:58 PM CDT
Civil Twilight 6:09 AM CDT 8:30 PM CDT
Nautical Twilight 5:31 AM CDT 9:07 PM CDT
Astronomical Twilight 4:50 AM CDT 9:48 PM CDT
Moon 8:05 PM CDT (9/1) 7:57 AM CDT (9/1)
Length of Visible Light 14h 21m
Length of Day
13h 18m
Full, 99% of the Moon is Illuminated
Sep 1
Full
Sep 8
Last Quarter
Sep 15
New
Sep 22
First Quarter
Sep 29
Full

Hourly Weather History & Observations

Time (CDT) Temp. Heat Index Dew Point Humidity Pressure Visibility Wind Dir Wind Speed Gust Speed Precip Events Conditions
12:53 AM 63.0 °F - 52.0 °F 67% 30.15 in 10.0 mi East 3.5 mph - N/A   Clear
1:53 AM 55.9 °F - 50.0 °F 80% 30.17 in 10.0 mi Calm Calm - N/A   Clear
2:53 AM 63.0 °F - 51.1 °F 65% 30.16 in 10.0 mi East 3.5 mph - N/A   Clear
3:53 AM 64.9 °F - 48.0 °F 54% 30.14 in 10.0 mi East 8.1 mph - N/A   Clear
4:53 AM 63.0 °F - 48.0 °F 58% 30.16 in 10.0 mi East 5.8 mph - N/A   Clear
5:53 AM 62.1 °F - 48.0 °F 60% 30.16 in 10.0 mi ESE 4.6 mph - N/A   Clear
6:53 AM 60.8 °F - 48.2 °F 63% 30.17 in 10.0 mi ESE 4.6 mph - N/A   Clear
7:53 AM 62.1 °F - 48.9 °F 62% 30.19 in 10.0 mi Calm Calm - N/A   Clear
8:53 AM 66.9 °F - 48.0 °F 51% 30.17 in 10.0 mi ESE 10.4 mph - N/A   Clear
9:53 AM 69.1 °F - 48.0 °F 47% 30.15 in 10.0 mi SE 10.4 mph - N/A   Clear
10:53 AM 73.9 °F - 46.9 °F 38% 30.14 in 10.0 mi SE 18.4 mph 23.0 mph N/A   Clear
11:53 AM 77.0 °F - 48.9 °F 37% 30.13 in 10.0 mi SE 15.0 mph - N/A   Clear
12:53 PM 80.1 °F - 52.0 °F 38% 30.10 in 10.0 mi SE 12.7 mph 23.0 mph N/A   Clear
1:53 PM 81.0 °F 80.4 °F 53.1 °F 38% 30.09 in 10.0 mi SE 15.0 mph 25.3 mph N/A   Clear
2:53 PM 82.0 °F 81.2 °F 53.1 °F 37% 30.06 in 10.0 mi SE 12.7 mph 25.3 mph N/A   Clear
3:53 PM 82.0 °F - 52.0 °F 35% 30.04 in 10.0 mi SE 17.3 mph 26.5 mph N/A   Clear
4:53 PM 81.0 °F 80.4 °F 53.1 °F 38% 30.02 in 10.0 mi SE 16.1 mph 24.2 mph N/A   Clear
5:53 PM 78.1 °F - 55.0 °F 45% 30.02 in 10.0 mi SE 12.7 mph 20.7 mph N/A   Clear
6:53 PM 75.0 °F - 55.0 °F 50% 30.01 in 10.0 mi SE 12.7 mph 19.6 mph N/A   Clear
7:53 PM 73.0 °F - 53.1 °F 49% 30.01 in 10.0 mi ESE 11.5 mph - N/A   Clear
8:53 PM 71.1 °F - 52.0 °F 51% 30.01 in 10.0 mi SE 9.2 mph - N/A   Clear
9:53 PM 69.1 °F - 51.1 °F 53% 30.00 in 10.0 mi SE 9.2 mph - N/A   Clear
10:53 PM 66.9 °F - 51.1 °F 57% 29.99 in 10.0 mi SE 10.4 mph - N/A   Clear
11:53 PM 66.0 °F - 51.1 °F 59% 29.98 in 10.0 mi SE 10.4 mph - N/A   Clear